Location: The Jewett Observatory
(46.7288°N, 117.1525°W)
Time: 09:28:43
(UTC-08:00)

Amateur Radio Satellites - All Passes

Search period start: 24 January 2017 08:58
Search period end: 25 January 2017 08:58
Location: The Jewett Observatory, 46.7288°N, 117.1525°W

Satellite Date Start Highest point End Downlink Frequencies (MHz)
Time Altitude Azimuth
ZACube-1 24 Jan 09:04:45 09:09:10 73° 285° (WNW) 09:13:39 437.345
HO-68 24 Jan 09:06:08 09:12:33 37° 300° (WNW) 09:18:56 435.675
SO-50 24 Jan 09:08:23 09:11:17 16° 332° (NNW) 09:14:09 436.795
NANOSAT C BR1 24 Jan 09:09:55 09:11:14 11° 58° (ENE) 09:12:33 145.865
JAS-2 24 Jan 09:12:03 09:17:14 43° 65° (ENE) 09:23:03 435.910
PRISM 24 Jan 09:21:42 09:24:45 20° 267° (W) 09:27:49 437.425
PCSat 24 Jan 09:26:37 09:31:24 32° 249° (WSW) 09:36:09 145.827
UNISAT 6 24 Jan 09:29:40 09:33:48 50° 261° (W) 09:37:58 437.425
DELFI C3 24 Jan 09:30:16 09:34:15 64° 101° (E) 09:38:10 145.870
Oscar 11 24 Jan 09:33:06 09:37:15 44° 289° (WNW) 09:41:24 145.826/435.025
TIGRISAT 24 Jan 09:41:47 09:45:46 40° 262° (W) 09:49:49 435.000
ANTELSAT 24 Jan 09:58:45 10:02:19 26° 266° (W) 10:05:56 437.575/2403.000
QB50P1 24 Jan 10:02:03 10:05:56 38° 69° (ENE) 10:09:50 145.935-145.965
POLYITAN 1 24 Jan 10:07:34 10:11:32 43° 70° (ENE) 10:15:32 437.675
QB50P2 24 Jan 10:08:55 10:12:57 48° 71° (ENE) 10:17:01 145.880/145.840
HUMSAT D 24 Jan 10:11:58 10:16:17 82° 285° (WNW) 10:20:36 437.325/437.525
FUNcube-1 24 Jan 10:16:17 10:19:14 18° 297° (WNW) 10:22:12 145.935
POPSAT HIP 1 24 Jan 10:29:07 10:33:16 72° 75° (ENE) 10:37:28 437.405
DUCHIFAT 1 24 Jan 10:34:11 10:38:18 71° 75° (ENE) 10:42:29 145.980
Cosmos 2491 24 Jan 10:40:23 10:47:00 23° 58° (ENE) 10:53:36 435.465 / 435.565
ESTCUBE 1 24 Jan 10:41:32 10:45:30 29° 95° (E) 10:49:25 437.505/2401.250
NANOSAT C BR1 24 Jan 10:42:07 10:46:18 87° 255° (WSW) 10:50:31 145.865
BY70-1 24 Jan 10:43:26 10:46:34 50° 100° (E) 10:49:28 436.1900
BUGSAT 1 24 Jan 10:50:42 10:54:28 39° 70° (ENE) 10:58:13 437.445
Oscar 19 24 Jan 10:56:42 11:00:16 19° 59° (ENE) 11:03:51 437.125/150
JAS-2 24 Jan 10:57:38 11:02:31 32° 267° (W) 11:07:55 435.910
DELFI C3 24 Jan 11:06:33 11:08:33 14° 299° (WNW) 11:10:34 145.870
CUBEBUG 1 24 Jan 11:07:59 11:11:51 31° 96° (E) 11:15:41 437.445
AO-85 24 Jan 11:30:30 11:33:03 15° 112° (ESE) 11:35:33 145.980
50 SAT 24 Jan 11:32:36 11:35:31 23° 95° (E) 11:38:23 437.505
AISAT 24 Jan 11:36:18 11:40:27 39° 98° (E) 11:44:33 437.250
QB50P1 24 Jan 11:38:35 11:41:50 22° 267° (W) 11:45:06 145.935-145.965
POLYITAN 1 24 Jan 11:44:33 11:47:33 19° 268° (W) 11:50:34 437.675
Gurwin Techsat 1B 24 Jan 11:46:07 11:50:33 28° 63° (ENE) 11:55:00 435.225
QB50P2 24 Jan 11:46:13 11:49:01 17° 269° (W) 11:51:51 145.880/145.840
HUMSAT D 24 Jan 11:50:17 11:51:10 11° 302° (WNW) 11:52:04 437.325/437.525
AO-7 24 Jan 11:52:24 11:57:23 18° 40° (NE) 12:02:22 29.400- 29.500
SPROUT 24 Jan 12:03:45 12:07:58 56° 100° (E) 12:12:09 437.525
DANDE 24 Jan 12:03:56 12:08:53 17° 55° (NE) 12:14:00 436.750
POPSAT HIP 1 24 Jan 12:08:03 12:09:33 12° 272° (W) 12:11:04 437.405
VELOX 1 24 Jan 12:09:15 12:13:41 82° 106° (ESE) 12:18:04 145.980
CUSAT 1 24 Jan 12:10:23 12:17:45 38° 66° (ENE) 12:24:29 437.405
DUCHIFAT 1 24 Jan 12:12:57 12:14:29 12° 271° (W) 12:16:02 145.980
BY70-1 24 Jan 12:15:33 12:16:16 11° 299° (WNW) 12:16:57 436.1900
UKube-1 24 Jan 12:16:14 12:20:12 34° 97° (E) 12:24:07 .
ESTCUBE 1 24 Jan 12:18:14 12:22:19 33° 293° (WNW) 12:26:21 437.505/2401.250
AIST 1 24 Jan 12:24:52 12:28:28 26° 89° (E) 12:32:05
DX 1 24 Jan 12:26:08 12:30:27 59° 102° (ESE) 12:34:43 434.975-435.025
BUGSAT 1 24 Jan 12:27:01 12:29:59 20° 267° (W) 12:32:58 437.445
Oscar 19 24 Jan 12:33:52 12:39:03 71° 257° (WSW) 12:44:16 437.125/150
SO-50 24 Jan 12:34:31 12:36:24 12° 22° (NNE) 12:38:16 436.795
Cosmos 2491 24 Jan 12:36:21 12:45:12 89° 83° (E) 12:54:03 435.465 / 435.565
CUBEBUG 1 24 Jan 12:44:21 12:48:04 28° 294° (WNW) 12:51:45 437.445
YUBILEINY 24 Jan 12:44:22 12:52:24 41° 86° (E) 13:00:28 435.215
Cosmos 2504 24 Jan 13:01:42 13:08:37 29° 83° (E) 13:15:12 435.465 / 435.565
50 SAT 24 Jan 13:05:42 13:08:41 25° 292° (WNW) 13:11:37 437.505
AO-85 24 Jan 13:08:23 13:13:01 77° 308° (NW) 13:17:20 145.980
AISAT 24 Jan 13:13:12 13:16:42 24° 296° (WNW) 13:20:11 437.250
O/OREOS (USA 219) 24 Jan 13:13:36 13:16:11 15° 46° (NE) 13:18:46 437.305
TISAT 1 24 Jan 13:15:22 13:19:26 48° 100° (E) 13:23:29 437.305
Gurwin Techsat 1B 24 Jan 13:25:10 13:30:16 47° 261° (W) 13:35:24 435.225
ITAMSAT 1 24 Jan 13:27:08 13:32:01 44° 67° (ENE) 13:36:56 435.822/435.867
AO-7 24 Jan 13:40:21 13:48:30 59° 63° (ENE) 13:56:41 29.400- 29.500
SPROUT 24 Jan 13:40:44 13:43:28 17° 298° (WNW) 13:46:12 437.525
DANDE 24 Jan 13:45:09 13:53:05 64° 75° (ENE) 14:01:21 436.750
VELOX 1 24 Jan 13:47:29 13:49:30 13° 302° (WNW) 13:51:32 145.980
CUSAT 1 24 Jan 13:52:16 14:00:01 56° 267° (W) 14:06:58 437.405
UKube-1 24 Jan 13:52:31 13:56:06 26° 295° (WNW) 13:59:39 .
ITUPSAT 1 24 Jan 14:00:58 14:05:14 30° 96° (E) 14:09:27 437.325
AIST 1 24 Jan 14:02:04 14:05:57 31° 287° (WNW) 14:09:51
DX 1 24 Jan 14:03:26 14:06:11 17° 300° (WNW) 14:08:56 434.975-435.025
SO-50 24 Jan 14:13:48 14:18:06 40° 44° (NE) 14:22:20 436.795
BEESAT 24 Jan 14:32:07 14:36:53 60° 101° (ESE) 14:41:37 436.000
SWISSCUBE 24 Jan 14:34:15 14:39:04 70° 103° (ESE) 14:43:51 437.505
Cosmos 2491 24 Jan 14:34:43 14:40:51 22° 283° (WNW) 14:47:00 435.465 / 435.565
YUBILEINY 24 Jan 14:40:31 14:49:02 51° 287° (WNW) 14:57:37 435.215
AO-85 24 Jan 14:51:18 14:54:05 16° 327° (NNW) 14:56:45 145.980
BEESAT 3 24 Jan 14:51:24 14:55:08 46° 121° (ESE) 14:58:57 437.485
O/OREOS (USA 219) 24 Jan 14:51:43 14:56:15 87° 247° (WSW) 15:00:47 437.305
TISAT 1 24 Jan 14:51:49 14:54:45 19° 297° (WNW) 14:57:38 437.305
Cosmos 2504 24 Jan 14:52:57 15:01:27 67° 282° (WNW) 15:09:24 435.465 / 435.565
GOMX 1 24 Jan 14:55:42 14:58:13 14° 58° (ENE) 15:00:41 467.674
ITAMSAT 1 24 Jan 15:07:19 15:11:39 27° 266° (W) 15:16:02 435.822/435.867
BRITE-PL 24 Jan 15:12:40 15:17:59 43° 69° (ENE) 15:23:08 437.365/2234.400
CUTE-I 24 Jan 15:15:47 15:16:56 11° 51° (NE) 15:18:05 437.470
MOZHAYETS 4 24 Jan 15:23:14 15:27:54 66° 102° (ESE) 15:32:31
DANDE 24 Jan 15:28:26 15:35:27 35° 273° (W) 15:42:41 436.750
KKS-1 24 Jan 15:29:11 15:32:47 24° 94° (E) 15:36:22 437.445
AO-7 24 Jan 15:34:04 15:41:37 37° 263° (W) 15:49:15 29.400- 29.500
CUSAT 1 24 Jan 15:37:44 15:40:06 12° 288° (WNW) 15:42:25 437.405
ITUPSAT 1 24 Jan 15:38:43 15:43:05 35° 293° (WNW) 15:47:26 437.325
HORYU 2 24 Jan 15:39:10 15:43:02 31° 67° (ENE) 15:46:57 437.375
BEESAT 2 24 Jan 15:46:21 15:50:18 76° 124° (SE) 15:54:19 435.950
NOAA 15 24 Jan 15:49:09 15:53:01 21° 59° (ENE) 15:56:53 137.62
SO-50 24 Jan 15:54:31 15:58:26 30° 244° (WSW) 16:02:19 436.795
Cubesat XI-IV 24 Jan 15:57:04 16:01:07 23° 60° (ENE) 16:05:11 437.490
M-CUBED/EXP-1 PRIME 24 Jan 16:04:07 16:07:14 36° 104° (ESE) 16:10:16 437.505
HO-68 24 Jan 16:07:00 16:10:04 13° 43° (NE) 16:13:09 435.675
STARS 24 Jan 16:08:55 16:12:42 28° 95° (E) 16:16:29 437.465
BEESAT 24 Jan 16:10:51 16:14:14 19° 300° (WNW) 16:17:37 436.000
SWISSCUBE 24 Jan 16:13:14 16:16:19 17° 301° (WNW) 16:19:24 437.505
CUBESAT XI-V 24 Jan 16:21:51 16:26:20 43° 98° (E) 16:30:45 437.345
BEESAT 3 24 Jan 16:29:44 16:32:58 24° 320° (NW) 16:36:14 437.485
GOMX 1 24 Jan 16:30:20 16:35:38 85° 76° (ENE) 16:40:39 467.674
AUBIESAT-1 24 Jan 16:36:29 16:39:50 79° 109° (ESE) 16:43:07 437.475
NOAA 18 24 Jan 16:39:22 16:44:06 31° 62° (ENE) 16:48:50 137.9125
YUBILEINY 24 Jan 16:45:15 16:48:30 12° 314° (NW) 16:51:46 435.215
DOVE 4 24 Jan 16:45:36 16:50:15 50° 72° (ENE) 16:54:40 437.250
CUTE-I 24 Jan 16:50:43 16:55:55 60° 71° (ENE) 17:01:10 437.470
BRITE-PL 24 Jan 16:51:27 16:56:30 32° 266° (W) 17:01:26 437.365/2234.400
Cosmos 2504 24 Jan 16:51:47 16:56:27 16° 305° (NW) 17:00:58 435.465 / 435.565
MOZHAYETS 4 24 Jan 17:01:34 17:04:33 17° 300° (WNW) 17:07:33
Cosmos 2499 24 Jan 17:04:25 17:08:24 15° 76° (ENE) 17:12:15 435.465 / 435.565
LilacSat-2 24 Jan 17:05:17 17:09:03 85° 76° (ENE) 17:12:54 437.200
KKS-1 24 Jan 17:05:21 17:09:28 38° 291° (WNW) 17:13:33 437.445
HORYU 2 24 Jan 17:15:44 17:19:35 29° 264° (W) 17:23:28 437.375
BEESAT 2 24 Jan 17:25:46 17:28:35 18° 325° (NW) 17:31:24 435.950
NOAA 15 24 Jan 17:27:02 17:32:18 66° 258° (WSW) 17:37:37 137.62
GONETS M04 24 Jan 17:34:59 17:41:01 21° 76° (ENE) 17:47:05
Cubesat XI-IV 24 Jan 17:35:33 17:40:47 60° 259° (WSW) 17:46:04 437.490
CUTE 1.7 + AOD 2 24 Jan 17:37:16 17:40:38 23° 65° (ENE) 17:44:01 437.475
M-CUBED/EXP-1 PRIME 24 Jan 17:39:27 17:41:29 15° 302° (WNW) 17:43:29 437.505
CINEMA 3 24 Jan 17:39:39 17:43:40 40° 70° (ENE) 17:47:37 145.822/145.860
STARS 24 Jan 17:45:10 17:49:04 32° 293° (WNW) 17:52:56 437.465
HO-68 24 Jan 17:49:19 17:56:13 53° 65° (ENE) 18:03:10 435.675
CUBESAT XI-V 24 Jan 17:59:42 18:03:29 24° 296° (WNW) 18:07:12 437.345
CUBEBUG 2 24 Jan 18:02:55 18:05:46 18° 63° (ENE) 18:08:39 437.445
COMPASS 1 24 Jan 18:04:31 18:07:38 20° 64° (ENE) 18:10:46 437.405
CANX-2 24 Jan 18:06:37 18:10:45 50° 72° (ENE) 18:14:56 2200.000
SEEDS 24 Jan 18:07:49 18:11:34 31° 68° (ENE) 18:15:20 437.485
AAUSAT CUBESAT 2 24 Jan 18:10:58 18:13:53 19° 63° (ENE) 18:16:49 437.432
GOMX 1 24 Jan 18:11:35 18:14:14 14° 272° (W) 18:16:50 467.674
NOAA 18 24 Jan 18:19:22 18:24:35 44° 261° (W) 18:29:50 137.9125
UWE-3 24 Jan 18:20:58 18:23:49 18° 63° (ENE) 18:26:43 435.000/436.395/437.385
DOVE 4 24 Jan 18:24:36 18:28:10 20° 268° (W) 18:31:36 437.250
STRAND 1 24 Jan 18:26:24 18:30:43 26° 94° (E) 18:35:00 437.568
AIST 2 24 Jan 18:27:02 18:31:08 76° 125° (SE) 18:35:21 435.215
ZACube-1 24 Jan 18:29:18 18:31:32 14° 60° (ENE) 18:33:47 437.345
CUTE-I 24 Jan 18:32:30 18:36:23 20° 269° (W) 18:40:18 437.470
Cosmos 2499 24 Jan 18:52:04 19:00:16 73° 95° (E) 19:07:52 435.465 / 435.565
Oscar 11 24 Jan 18:55:10 18:58:31 23° 65° (ENE) 19:01:55 145.826/435.025
CUTE 1.7 + AOD 2 24 Jan 19:12:17 19:16:16 38° 263° (W) 19:20:18 437.475
CINEMA 3 24 Jan 19:17:45 19:20:59 20° 267° (W) 19:24:11 145.822/145.860
GONETS M04 24 Jan 19:27:52 19:36:36 89° 270° (W) 19:45:28
HUMSAT D 24 Jan 19:33:16 19:34:42 12° 58° (ENE) 19:36:09 437.325/437.525
FUNcube-1 24 Jan 19:37:09 19:41:13 60° 73° (ENE) 19:45:23 145.935
HO-68 24 Jan 19:37:41 19:44:10 36° 264° (W) 19:50:42 435.675
CUBEBUG 2 24 Jan 19:38:06 19:42:05 46° 261° (W) 19:46:06 437.445
COMPASS 1 24 Jan 19:38:54 19:42:54 43° 262° (W) 19:46:57 437.405
SEEDS 24 Jan 19:43:38 19:47:15 27° 266° (W) 19:50:55 437.485
CANX-2 24 Jan 19:44:05 19:46:54 17° 270° (W) 19:49:45 2200.000
AAUSAT CUBESAT 2 24 Jan 19:44:58 19:49:01 48° 261° (W) 19:53:07 437.432
UWE-3 24 Jan 19:55:58 19:59:58 47° 261° (W) 20:04:01 435.000/436.395/437.385
AO-85 24 Jan 19:57:16 20:00:44 28° 42° (NE) 20:04:07 145.980
ISS 24 Jan 19:58:51 20:01:26 22° 139° (SE) 20:04:01 145.825
ZACube-1 24 Jan 20:03:12 20:07:18 65° 258° (WSW) 20:11:30 437.345
STRAND 1 24 Jan 20:05:11 20:10:05 45° 292° (WNW) 20:14:58 437.568
AIST 2 24 Jan 20:07:04 20:10:07 19° 325° (NW) 20:13:12 435.215
DELFI C3 24 Jan 20:18:08 20:22:02 53° 73° (ENE) 20:25:58 145.870
Oscar 11 24 Jan 20:30:21 20:34:26 41° 262° (W) 20:38:33 145.826/435.025
Cosmos 2499 24 Jan 20:47:32 20:54:05 26° 295° (WNW) 21:00:19 435.465 / 435.565
PRISM 24 Jan 20:58:52 21:02:50 44° 99° (E) 21:06:44 437.425
BY70-1 24 Jan 21:00:13 21:02:26 17° 65° (ENE) 21:04:42 436.1900
RS-15 24 Jan 21:01:12 21:10:10 26° 100° (E) 21:19:21 29.354- 29.394
HUMSAT D 24 Jan 21:05:31 21:09:39 84° 260° (W) 21:13:52 437.325/437.525
FUNcube-1 24 Jan 21:15:49 21:17:54 14° 271° (W) 21:20:00 145.935
UNISAT 6 24 Jan 21:18:13 21:22:02 27° 95° (E) 21:25:54 437.425
GONETS M04 24 Jan 21:28:15 21:34:48 23° 302° (WNW) 21:41:26
BEESAT 3 24 Jan 21:28:59 21:31:13 14° 32° (NNE) 21:33:26 437.485
TIGRISAT 24 Jan 21:29:49 21:33:50 32° 96° (E) 21:37:56 435.000
ISS 24 Jan 21:34:24 21:37:40 71° 336° (NNW) 21:40:55 145.825
VELOX 1 24 Jan 21:35:19 21:37:28 14° 58° (ENE) 21:39:38 145.980
AO-85 24 Jan 21:37:34 21:41:10 35° 241° (WSW) 21:44:45 145.980
ESTCUBE 1 24 Jan 21:43:30 21:47:40 37° 68° (ENE) 21:51:53 437.505/2401.250
ANTELSAT 24 Jan 21:46:09 21:50:31 49° 100° (E) 21:54:58 437.575/2403.000
DELFI C3 24 Jan 21:54:53 21:57:10 15° 270° (W) 21:59:29 145.870
JAS-2 24 Jan 22:01:18 22:08:01 36° 94° (E) 22:15:04 435.910
CUBEBUG 1 24 Jan 22:06:20 22:10:23 37° 69° (ENE) 22:14:27 437.445
50 SAT 24 Jan 22:10:25 22:12:46 17° 64° (ENE) 22:15:06 437.505
BEESAT 2 24 Jan 22:24:25 22:27:23 19° 36° (NE) 22:30:21 435.950
NANOSAT C BR1 24 Jan 22:25:20 22:27:04 12° 89° (E) 22:28:48 145.865
PCSat 24 Jan 22:28:40 22:32:42 22° 107° (ESE) 22:36:45 145.827
BY70-1 24 Jan 22:29:34 22:32:24 30° 263° (W) 22:35:22 436.1900
PRISM 24 Jan 22:34:53 22:37:49 19° 297° (WNW) 22:40:43 437.425
AISAT 24 Jan 22:35:58 22:40:15 50° 71° (ENE) 22:44:33 437.250
YUBILEINY 24 Jan 22:50:39 22:57:33 25° 60° (ENE) 23:04:22 435.215
Cosmos 2504 24 Jan 22:52:47 22:54:06 10° 49° (NE) 22:55:25 435.465 / 435.565
UNISAT 6 24 Jan 22:54:43 22:58:47 35° 292° (WNW) 23:02:56 437.425
SPROUT 24 Jan 22:59:34 23:03:44 61° 73° (ENE) 23:07:57 437.525
BEESAT 3 24 Jan 23:05:31 23:09:32 72° 53° (NE) 23:13:31 437.485
TIGRISAT 24 Jan 23:06:35 23:10:28 30° 293° (WNW) 23:14:24 435.000
VELOX 1 24 Jan 23:08:52 23:13:19 81° 258° (WSW) 23:17:47 145.980
RS-15 24 Jan 23:08:54 23:20:52 85° 124° (ESE) 23:33:18 29.354- 29.394
ISS 24 Jan 23:11:28 23:14:29 33° 356° (N) 23:17:29 145.825
UKube-1 24 Jan 23:13:08 23:17:12 42° 69° (ENE) 23:21:18 .
QB50P1 24 Jan 23:19:04 23:23:10 47° 99° (E) 23:27:15 145.935-145.965
ESTCUBE 1 24 Jan 23:20:47 23:24:34 26° 266° (W) 23:28:23 437.505/2401.250
ANTELSAT 24 Jan 23:23:37 23:26:55 21° 297° (WNW) 23:30:16 437.575/2403.000
DX 1 24 Jan 23:24:00 23:28:22 74° 73° (ENE) 23:32:44 434.975-435.025
POLYITAN 1 24 Jan 23:24:50 23:29:02 55° 101° (E) 23:33:12 437.675
QB50P2 24 Jan 23:26:17 23:30:30 61° 101° (ESE) 23:34:42 145.880/145.840
50 SAT 24 Jan 23:42:19 23:45:41 39° 261° (W) 23:49:05 437.505
CUBEBUG 1 24 Jan 23:43:12 23:46:46 24° 266° (W) 23:50:21 437.445
JAS-2 24 Jan 23:46:08 23:53:12 56° 292° (WNW) 00:00:46 435.910
POPSAT HIP 1 24 Jan 23:46:27 23:50:42 90° 277° (W) 23:54:57 437.405
Cosmos 2491 24 Jan 23:47:33 23:53:35 22° 77° (ENE) 23:59:39 435.465 / 435.565
DUCHIFAT 1 24 Jan 23:50:42 23:54:56 88° 102° (ESE) 23:59:09 145.980
NANOSAT C BR1 24 Jan 23:59:03 00:03:16 70° 285° (WNW) 00:07:28 145.865
BEESAT 2 25 Jan 00:01:34 00:05:37 72° 235° (SW) 00:09:38 435.950
BUGSAT 1 25 Jan 00:04:24 00:08:17 44° 99° (E) 00:12:12 437.445
AIST 1 25 Jan 00:05:22 00:09:40 84° 84° (E) 00:13:54
BEESAT 25 Jan 00:06:18 00:08:46 14° 57° (ENE) 00:11:12 436.000
SWISSCUBE 25 Jan 00:08:00 00:10:52 16° 58° (ENE) 00:13:45 437.505
TISAT 1 25 Jan 00:09:22 00:13:24 51° 72° (ENE) 00:17:27 437.305
PCSat 25 Jan 00:10:14 00:15:37 65° 306° (NW) 00:21:02 145.827
AISAT 25 Jan 00:13:55 00:17:00 18° 268° (W) 00:20:05 437.250
PHONESAT 2.4 25 Jan 00:18:11 00:19:20 13° 168° (SSE) 00:20:29 2401.200-2431.200
SPROUT 25 Jan 00:37:46 00:40:04 14° 270° (W) 00:42:22 437.525
Cosmos 2504 25 Jan 00:42:27 00:49:39 53° 74° (ENE) 00:56:36 435.465 / 435.565
Oscar 19 25 Jan 00:42:46 00:47:25 32° 96° (E) 00:52:00 437.125/150
BEESAT 3 25 Jan 00:44:41 00:46:37 13° 250° (WSW) 00:48:32 437.485
YUBILEINY 25 Jan 00:46:42 00:55:35 86° 263° (W) 01:04:20 435.215
ISS 25 Jan 00:48:14 00:51:24 47° 16° (NNE) 00:54:33 145.825
UKube-1 25 Jan 00:50:10 00:53:25 21° 267° (W) 00:56:42 .
MOZHAYETS 4 25 Jan 00:53:58 00:55:44 12° 57° (ENE) 00:57:30
QB50P1 25 Jan 00:55:37 00:58:37 19° 297° (WNW) 01:01:37 145.935-145.965
POLYITAN 1 25 Jan 01:01:40 01:04:25 17° 298° (WNW) 01:07:11 437.675
DX 1 25 Jan 01:03:16 01:05:03 12° 271° (W) 01:06:52 434.975-435.025
QB50P2 25 Jan 01:03:18 01:05:50 16° 299° (WNW) 01:08:22 145.880/145.840
AIST 2 25 Jan 01:07:49 01:11:05 21° 37° (NE) 01:14:21 435.215
ITUPSAT 1 25 Jan 01:10:13 01:14:47 48° 69° (ENE) 01:19:24 437.325
CUSAT 1 25 Jan 01:14:58 01:19:49 26° 82° (E) 01:25:29 437.405
M-CUBED/EXP-1 PRIME 25 Jan 01:20:52 01:22:09 11° 55° (NE) 01:23:26 437.505
RS-15 25 Jan 01:23:27 01:34:53 44° 332° (NNW) 01:46:34 29.354- 29.394
POPSAT HIP 1 25 Jan 01:24:34 01:25:49 11° 302° (WNW) 01:27:04 437.405
DUCHIFAT 1 25 Jan 01:28:35 01:29:58 11° 302° (WNW) 01:31:20 145.980
JAS-2 25 Jan 01:33:22 01:36:53 14° 311° (NW) 01:40:32 435.910
Gurwin Techsat 1B 25 Jan 01:38:05 01:43:21 55° 101° (E) 01:48:33 435.225
ITAMSAT 1 25 Jan 01:39:00 01:40:57 12° 87° (E) 01:42:53 435.822/435.867
Cosmos 2491 25 Jan 01:40:30 01:49:13 88° 277° (W) 01:58:02 435.465 / 435.565
BUGSAT 1 25 Jan 01:40:31 01:43:22 19° 297° (WNW) 01:46:13 437.445
BEESAT 25 Jan 01:41:05 01:45:51 87° 255° (WSW) 01:50:40 436.000
AO-7 25 Jan 01:41:15 01:45:02 14° 84° (E) 01:48:48 29.400- 29.500
SWISSCUBE 25 Jan 01:43:19 01:48:04 75° 257° (WSW) 01:52:53 437.505
TISAT 1 25 Jan 01:46:44 01:49:20 16° 269° (W) 01:51:57 437.305
PHONESAT 2.4 25 Jan 01:51:03 01:52:32 16° 184° (S) 01:54:02 2401.200-2431.200
AUBIESAT-1 25 Jan 01:51:24 01:54:07 18° 59° (ENE) 01:56:43 437.475
PCSat 25 Jan 01:56:33 02:00:05 17° 329° (NNW) 02:03:38 145.827
Oscar 19 25 Jan 02:22:02 02:26:46 37° 294° (WNW) 02:31:26 437.125/150
ISS 25 Jan 02:24:47 02:27:52 40° 215° (SW) 02:30:56 145.825
MOZHAYETS 4 25 Jan 02:27:34 02:32:09 85° 76° (ENE) 02:36:48
KKS-1 25 Jan 02:29:43 02:33:39 32° 67° (ENE) 02:37:36 437.445
Cosmos 2504 25 Jan 02:36:25 02:42:38 31° 276° (W) 02:48:44 435.465 / 435.565
YUBILEINY 25 Jan 02:45:15 02:51:02 20° 285° (WNW) 02:56:48 435.215
AIST 2 25 Jan 02:45:45 02:50:00 69° 236° (SW) 02:54:12 435.215
ITUPSAT 1 25 Jan 02:49:12 02:52:52 22° 267° (W) 02:56:34 437.325
M-CUBED/EXP-1 PRIME 25 Jan 02:51:56 02:56:10 89° 271° (W) 03:00:04 437.505
CUSAT 1 25 Jan 02:55:08 03:00:59 63° 286° (WNW) 03:08:19 437.405
DANDE 25 Jan 02:57:00 03:01:19 46° 91° (E) 03:07:04 436.750
STARS 25 Jan 03:08:01 03:12:00 36° 68° (ENE) 03:16:00 437.465
ITAMSAT 1 25 Jan 03:15:56 03:21:12 85° 105° (ESE) 03:26:25 435.822/435.867
Gurwin Techsat 1B 25 Jan 03:18:44 03:22:55 24° 299° (WNW) 03:27:07 435.225
BEESAT 25 Jan 03:23:15 03:24:21 11° 273° (W) 03:25:28 436.000
AUBIESAT-1 25 Jan 03:24:18 03:28:17 48° 254° (WSW) 03:32:00 437.475
CUBESAT XI-V 25 Jan 03:27:29 03:32:06 58° 72° (ENE) 03:36:45 437.345
AO-7 25 Jan 03:31:05 03:39:27 66° 105° (ESE) 03:47:42 29.400- 29.500
GONETS M04 25 Jan 03:40:04 03:43:57 13° 48° (NE) 03:47:50
RS-15 25 Jan 03:40:40 03:51:33 34° 6° (N) 04:02:22 29.354- 29.394
Cosmos 2491 25 Jan 03:40:57 03:47:26 23° 302° (WNW) 03:53:59 435.465 / 435.565
KKS-1 25 Jan 04:06:20 04:10:12 29° 264° (W) 04:14:05 437.445
MOZHAYETS 4 25 Jan 04:08:27 04:09:58 11° 273° (W) 04:11:28
GOMX 1 25 Jan 04:30:41 04:33:36 17° 90° (E) 04:36:25 467.674
Cosmos 2499 25 Jan 04:40:22 04:46:23 28° 66° (ENE) 04:52:19 435.465 / 435.565
DANDE 25 Jan 04:40:28 04:44:30 26° 300° (WNW) 04:49:34 436.750
CUSAT 1 25 Jan 04:41:13 04:44:47 15° 311° (NW) 04:48:40 437.405
STARS 25 Jan 04:44:50 04:48:26 25° 265° (W) 04:52:02 437.465
BRITE-PL 25 Jan 04:53:17 04:58:07 77° 103° (ESE) 05:02:31 437.365/2234.400
ITAMSAT 1 25 Jan 04:56:50 04:59:59 16° 304° (WNW) 05:03:08 435.822/435.867
HORYU 2 25 Jan 05:02:56 05:07:09 40° 99° (E) 05:11:22 437.375
CUTE-I 25 Jan 05:05:38 05:09:24 19° 91° (E) 05:13:09 437.470
O/OREOS (USA 219) 25 Jan 05:06:40 05:11:04 63° 112° (ESE) 05:15:31 437.305
CUBESAT XI-V 25 Jan 05:06:40 05:09:51 18° 270° (W) 05:13:03 437.345
AO-7 25 Jan 05:24:26 05:31:44 35° 306° (NW) 05:39:01 29.400- 29.500
PCSat 25 Jan 05:30:03 05:32:07 12° 22° (NNE) 05:34:11 145.827
GONETS M04 25 Jan 05:34:36 05:43:17 55° 74° (ENE) 05:51:54
NOAA 15 25 Jan 05:39:22 05:44:18 37° 97° (E) 05:49:11 137.62
STRAND 1 25 Jan 05:44:51 05:49:45 50° 69° (ENE) 05:54:41 437.568
Cubesat XI-IV 25 Jan 05:49:44 05:54:51 44° 98° (E) 05:59:56 437.490
RS-15 25 Jan 05:55:24 06:07:34 55° 38° (NE) 06:19:21 29.354- 29.394
GOMX 1 25 Jan 06:07:51 06:12:03 47° 289° (WNW) 06:16:03 467.674
LilacSat-2 25 Jan 06:09:45 06:13:39 88° 103° (ESE) 06:17:33 437.200
SO-50 25 Jan 06:10:29 06:14:56 43° 120° (ESE) 06:19:21 436.795
DOVE 4 25 Jan 06:18:55 06:23:06 90° 18° (NNE) 06:27:15 437.250
Cosmos 2499 25 Jan 06:33:02 06:40:00 59° 267° (W) 06:46:55 435.465 / 435.565
BRITE-PL 25 Jan 06:33:17 06:35:52 15° 303° (WNW) 06:38:22 437.365/2234.400
NOAA 18 25 Jan 06:38:01 06:43:26 62° 102° (ESE) 06:48:50 137.9125
HORYU 2 25 Jan 06:39:55 06:43:30 24° 296° (WNW) 06:47:04 437.375
CUTE-I 25 Jan 06:44:37 06:49:55 65° 289° (WNW) 06:55:13 437.470
O/OREOS (USA 219) 25 Jan 06:47:47 06:50:55 18° 311° (NW) 06:54:05 437.305
CUTE 1.7 + AOD 2 25 Jan 06:54:10 06:57:57 29° 95° (E) 07:01:41 437.475
HO-68 25 Jan 07:01:16 07:08:00 41° 98° (E) 07:14:40 435.675
CINEMA 3 25 Jan 07:07:32 07:11:46 70° 102° (ESE) 07:16:08 145.822/145.860
PCSat 25 Jan 07:12:09 07:17:11 37° 46° (NE) 07:22:11 145.827
COMPASS 1 25 Jan 07:18:57 07:22:24 24° 93° (E) 07:25:48 437.405
NOAA 15 25 Jan 07:19:16 07:24:01 34° 295° (WNW) 07:28:44 137.62
AO-7 25 Jan 07:20:25 07:22:01 11° 330° (NNW) 07:23:36 29.400- 29.500
SEEDS 25 Jan 07:23:49 07:27:51 40° 97° (E) 07:31:50 437.485
CANX-2 25 Jan 07:24:16 07:28:34 70° 101° (E) 07:32:51 2200.000
AAUSAT CUBESAT 2 25 Jan 07:24:40 07:27:55 21° 93° (E) 07:31:07 437.432
FUNcube-1 25 Jan 07:25:07 07:25:25 10° 87° (E) 07:25:43 145.935
STRAND 1 25 Jan 07:25:09 07:29:11 23° 267° (W) 07:33:16 437.568
CUBEBUG 2 25 Jan 07:25:33 07:29:22 28° 95° (E) 07:33:15 437.445
Cubesat XI-IV 25 Jan 07:30:10 07:34:44 30° 297° (WNW) 07:39:19 437.490
GONETS M04 25 Jan 07:31:54 07:39:48 39° 275° (W) 07:47:42
UWE-3 25 Jan 07:42:19 07:46:06 27° 95° (E) 07:49:58 435.000/436.395/437.385
ZACube-1 25 Jan 07:48:52 07:52:10 20° 92° (E) 07:55:30 437.345
PRISM 25 Jan 07:50:30 07:54:30 47° 71° (ENE) 07:58:31 437.425
SO-50 25 Jan 07:51:17 07:55:31 32° 319° (NW) 07:59:42 436.795
DOVE 4 25 Jan 07:59:25 08:00:08 10° 302° (WNW) 08:00:50 437.250
RS-15 25 Jan 08:08:27 08:20:28 61° 245° (WSW) 08:32:01 29.354- 29.394
Oscar 11 25 Jan 08:14:34 08:18:24 29° 95° (E) 08:22:13 145.826/435.025
JAS-2 25 Jan 08:19:02 08:22:55 19° 53° (NE) 08:27:06 435.910
NOAA 18 25 Jan 08:19:29 08:23:40 23° 301° (WNW) 08:27:51 137.9125
UNISAT 6 25 Jan 08:19:54 08:23:39 31° 67° (ENE) 08:27:28 437.425
CUTE-I 25 Jan 08:27:12 08:28:58 12° 308° (NW) 08:30:45 437.470
CUTE 1.7 + AOD 2 25 Jan 08:29:59 08:33:45 30° 293° (WNW) 08:37:28 437.475
TIGRISAT 25 Jan 08:31:17 08:35:11 38° 69° (ENE) 08:39:10 435.000
CINEMA 3 25 Jan 08:46:15 08:48:26 14° 299° (WNW) 08:50:38 145.822/145.860
HUMSAT D 25 Jan 08:47:22 08:49:30 13° 89° (E) 08:51:40 437.325/437.525
ANTELSAT 25 Jan 08:47:40 08:51:51 59° 72° (ENE) 08:56:05 437.575/2403.000
